Cas;Teplota [C];Tlak [hPa];Svetlo [lux];Rychlost vetru [km/h];Smer vetru [stupne]
2022-06-18 00:00:01;20.2;1017.02;9;0;0
2022-06-18 00:01:01;20.27;1017.02;10;0;0
2022-06-18 00:02:01;20.28;1017.06;10;0;0
2022-06-18 00:03:01;20.38;1017.05;9;0;0
2022-06-18 00:04:01;20.18;1017.11;10;0;0
2022-06-18 00:05:01;20.12;1017.05;10;0;0
2022-06-18 00:06:01;20.28;1017.12;9;0;0
2022-06-18 00:07:01;20.33;1017.1;9;0;0
2022-06-18 00:08:02;20.18;1017.1;9;0;0
2022-06-18 00:09:01;20.12;1017.17;9;0;0
2022-06-18 00:10:01;20.15;1017.13;8;0;0
2022-06-18 00:11:01;20.08;1017.12;9;0;0
2022-06-18 00:12:02;20.15;1017.05;9;0;0
2022-06-18 00:13:01;20.02;1017.08;9;0;0
2022-06-18 00:14:01;20.06;1017.01;9;0;0
2022-06-18 00:15:01;20.05;1017.07;9;0;0
2022-06-18 00:16:01;20.24;1017.12;9;0;0
2022-06-18 00:17:01;20.03;1017.12;9;0;0
2022-06-18 00:18:01;20;1017.11;9;0;0
2022-06-18 00:19:01;20.15;1017.16;8;0;0
2022-06-18 00:20:01;20.07;1017.05;8;0;0
2022-06-18 00:21:01;19.97;1017.08;9;0;0
2022-06-18 00:22:01;19.9;1017.07;10;0;0
2022-06-18 00:23:01;20.12;1017.13;8;0;0
2022-06-18 00:24:01;19.98;1017.05;9;0;0
2022-06-18 00:25:01;19.92;1017.14;10;0;0
2022-06-18 00:26:01;19.91;1017.11;9;0;0
2022-06-18 00:27:01;19.94;1017.07;9;0;0
2022-06-18 00:28:01;19.92;1017.08;10;0;0
2022-06-18 00:29:01;19.84;1017.04;9;0;0
2022-06-18 00:30:01;19.8;1017.07;9;0;0
2022-06-18 00:31:01;19.96;1017;10;0;0
2022-06-18 00:32:01;19.9;1017.05;9;0;0
2022-06-18 00:33:01;19.74;1017.1;10;0;0
2022-06-18 00:34:01;19.79;1017.04;9;0;0
2022-06-18 00:35:01;19.78;1017.12;9;0;0
2022-06-18 00:36:01;19.66;1017.03;9;0;0
2022-06-18 00:37:01;19.59;1016.97;9;0;0
2022-06-18 00:38:01;19.54;1017.12;10;0;0
2022-06-18 00:39:01;19.59;1017.13;9;0;0
2022-06-18 00:40:01;19.46;1017.11;10;0;0
2022-06-18 00:41:01;19.5;1016.96;9;0;0
2022-06-18 00:42:01;19.37;1017.02;9;0;0
2022-06-18 00:43:01;19.41;1016.92;9;0;0
2022-06-18 00:44:01;19.33;1016.99;9;0;0
2022-06-18 00:45:01;19.3;1016.95;7;0;0
2022-06-18 00:46:01;19.34;1016.93;9;0;0
2022-06-18 00:47:01;19.35;1017.01;9;0;0
2022-06-18 00:48:01;19.27;1016.98;9;0;0
2022-06-18 00:49:01;19.29;1016.92;9;0;0
2022-06-18 00:50:01;19.27;1016.97;9;0;0
2022-06-18 00:51:01;19.12;1017.02;9;0;0
2022-06-18 00:52:01;19.13;1016.97;9;0;0
2022-06-18 00:53:01;19.23;1017.02;9;0;0
2022-06-18 00:54:01;19.14;1016.93;9;0;0
2022-06-18 00:55:01;19.14;1016.95;9;0;0
2022-06-18 00:56:01;19.23;1016.96;8;0;0
2022-06-18 00:57:01;19.04;1016.98;7;0;0
2022-06-18 00:58:01;18.83;1017.13;8;0;0
2022-06-18 00:59:01;18.93;1017.09;9;0;0
2022-06-18 01:00:01;18.93;1017.06;9;0;0
2022-06-18 01:01:01;18.88;1017.09;9;0;0
2022-06-18 01:02:01;18.76;1017.08;8;0;0
2022-06-18 01:03:01;18.77;1017.13;9;0;0
2022-06-18 01:04:01;18.72;1017.12;9;0;0
2022-06-18 01:05:01;18.63;1016.99;8;0;0
2022-06-18 01:06:01;18.62;1016.97;9;0;0
2022-06-18 01:07:01;18.76;1016.94;9;0;0
2022-06-18 01:08:01;18.78;1016.94;8;0;0
2022-06-18 01:09:01;18.61;1016.87;9;0;0
2022-06-18 01:10:01;18.57;1016.87;9;0;0
2022-06-18 01:11:01;18.57;1016.94;9;0;0
2022-06-18 01:12:01;18.46;1016.86;9;0;0
2022-06-18 01:13:01;18.53;1016.92;9;0;0
2022-06-18 01:14:01;18.36;1016.85;9;0;0
2022-06-18 01:15:01;18.5;1016.8;9;0;0
2022-06-18 01:16:01;18.42;1016.75;8;0;0
2022-06-18 01:17:01;18.36;1016.74;9;0;0
2022-06-18 01:18:02;18.33;1016.76;8;0;0
2022-06-18 01:19:01;18.24;1016.78;9;0;0
2022-06-18 01:20:01;18.28;1016.78;9;0;0
2022-06-18 01:21:01;18.21;1016.79;9;0;0
2022-06-18 01:22:01;18.15;1016.72;8;0;0
2022-06-18 01:23:01;18.09;1016.84;8;0;0
2022-06-18 01:24:02;18.15;1016.86;9;0;0
2022-06-18 01:25:01;18.21;1016.8;9;0;0
2022-06-18 01:26:01;18.19;1016.9;9;0;0
2022-06-18 01:27:01;18.32;1016.87;8;0;0
2022-06-18 01:28:01;18.29;1016.83;9;0;0
2022-06-18 01:29:01;18.23;1016.88;9;0;0
2022-06-18 01:30:01;18.24;1016.96;8;0;0
2022-06-18 01:31:01;18.2;1017.05;9;0;0
2022-06-18 01:32:01;18.3;1017.03;9;0;0
2022-06-18 01:33:01;18.3;1016.99;9;0;0
2022-06-18 01:34:01;18.26;1016.97;9;0;0
2022-06-18 01:35:01;18.33;1016.95;9;0;0
2022-06-18 01:36:01;18.39;1016.9;9;0;0
2022-06-18 01:37:01;18.46;1016.95;9;0;0
2022-06-18 01:38:01;18.35;1016.97;9;0;0
2022-06-18 01:39:01;18.4;1016.97;9;0;0
2022-06-18 01:40:01;18.36;1016.88;8;0;0
2022-06-18 01:41:01;18.41;1016.88;9;0;0
2022-06-18 01:42:01;18.35;1016.91;9;0;0
2022-06-18 01:43:01;18.28;1016.9;9;0;0
2022-06-18 01:44:02;18.28;1016.97;9;0;0
2022-06-18 01:45:01;18.28;1016.89;9;0;0
2022-06-18 01:46:01;18.1;1016.95;8;0;0
2022-06-18 01:47:01;18.17;1016.93;9;0;0
2022-06-18 01:48:01;18.27;1016.99;8;0;0
2022-06-18 01:49:01;18.24;1016.95;8;0;0
2022-06-18 01:50:01;18.25;1016.91;8;0;0
2022-06-18 01:51:01;18.3;1016.9;9;0;0
2022-06-18 01:52:01;18.44;1016.85;8;0;0
2022-06-18 01:53:02;18.24;1016.76;9;0;0
2022-06-18 01:54:01;18.3;1016.77;8;0;0
2022-06-18 01:55:01;18.25;1016.68;8;0;0
2022-06-18 01:56:01;18.22;1016.73;8;0;0
2022-06-18 01:57:01;18.15;1016.72;8;0;0
2022-06-18 01:58:01;18.04;1016.7;8;0;0
2022-06-18 01:59:02;18.22;1016.68;8;0;0
2022-06-18 02:00:01;18.08;1016.67;8;0;0
2022-06-18 02:01:02;18.02;1016.74;9;0;0
2022-06-18 02:02:01;18.04;1016.77;9;0;0
2022-06-18 02:03:01;18.19;1016.69;8;0;0
2022-06-18 02:04:01;18.09;1016.81;8;0;0
2022-06-18 02:05:01;18.16;1016.81;8;0;0
2022-06-18 02:06:02;18.19;1016.73;8;0;0
2022-06-18 02:07:01;18;1016.82;8;0;0
2022-06-18 02:08:01;17.93;1016.76;9;0;0
2022-06-18 02:09:01;17.96;1016.74;9;0;0
2022-06-18 02:10:02;17.92;1016.83;8;0;0
2022-06-18 02:11:01;18.11;1016.85;9;0;0
2022-06-18 02:12:01;17.9;1016.88;9;0;0
2022-06-18 02:13:01;17.87;1016.82;8;0;0
2022-06-18 02:14:01;17.86;1016.92;8;0;0
2022-06-18 02:15:01;17.86;1016.89;9;0;0
2022-06-18 02:16:01;18.02;1016.91;8;0;0
2022-06-18 02:17:01;17.9;1016.94;8;0;0
2022-06-18 02:18:01;17.82;1017;9;0;0
2022-06-18 02:19:01;17.91;1017.01;9;0;0
2022-06-18 02:20:01;17.77;1016.91;9;0;0
2022-06-18 02:21:01;17.78;1016.96;9;0;0
2022-06-18 02:22:02;17.77;1016.94;9;0;0
2022-06-18 02:23:01;17.69;1016.92;9;0;0
2022-06-18 02:24:01;17.65;1016.98;9;0;0
2022-06-18 02:25:01;17.73;1016.95;7;0;0
2022-06-18 02:26:01;17.75;1016.95;9;0;0
2022-06-18 02:27:02;17.7;1016.97;9;0;0
2022-06-18 02:28:01;17.7;1016.96;8;0;0
2022-06-18 02:29:01;17.78;1016.95;8;0;0
2022-06-18 02:30:01;17.63;1016.91;8;0;0
2022-06-18 02:31:01;17.64;1016.87;8;0;0
2022-06-18 02:32:01;17.8;1016.81;8;0;0
2022-06-18 02:33:02;17.7;1016.88;9;0;0
2022-06-18 02:34:01;17.73;1016.85;9;0;0
2022-06-18 02:35:01;17.61;1016.86;8;0;0
2022-06-18 02:36:01;17.52;1016.95;8;0;0
2022-06-18 02:37:01;17.64;1016.88;9;0;0
2022-06-18 02:38:01;17.56;1016.88;8;0;0
2022-06-18 02:39:02;17.37;1016.92;9;0;0
2022-06-18 02:40:01;17.64;1016.92;8;0;0
2022-06-18 02:41:01;17.7;1016.9;9;0;0
2022-06-18 02:42:01;17.39;1016.91;9;0;0
2022-06-18 02:43:01;17.38;1016.91;9;0;0
2022-06-18 02:44:01;17.46;1016.93;9;0;0
2022-06-18 02:45:01;17.31;1016.85;9;0;0
2022-06-18 02:46:01;17.4;1016.87;8;0;0
2022-06-18 02:47:01;17.23;1016.85;9;0;0
2022-06-18 02:48:01;17.2;1016.86;9;0;0
2022-06-18 02:49:01;17.29;1016.8;7;0;0
2022-06-18 02:50:01;17.05;1016.78;9;0;0
2022-06-18 02:51:01;17.07;1016.79;9;0;0
2022-06-18 02:52:01;17;1016.8;8;0;0
2022-06-18 02:53:01;16.96;1016.8;8;0;0
2022-06-18 02:54:01;17.23;1016.71;9;0;0
2022-06-18 02:55:01;16.91;1016.73;9;0;0
2022-06-18 02:56:01;16.89;1016.72;9;0;0
2022-06-18 02:57:01;16.86;1016.66;9;0;0
2022-06-18 02:58:01;16.88;1016.75;9;0;0
2022-06-18 02:59:01;17;1016.68;9;0;0
2022-06-18 03:00:01;16.79;1016.63;9;0;0
2022-06-18 03:01:01;16.79;1016.65;9;0;0
2022-06-18 03:02:01;16.72;1016.61;9;0;0
2022-06-18 03:03:01;16.72;1016.59;9;0;0
2022-06-18 03:04:01;16.69;1016.66;8;0;0
2022-06-18 03:05:01;16.59;1016.63;9;0;0
2022-06-18 03:06:01;16.66;1016.63;9;0;0
2022-06-18 03:07:01;16.71;1016.61;9;0;0
2022-06-18 03:08:01;16.5;1016.61;8;0;0
2022-06-18 03:09:01;16.65;1016.65;8;0;0
2022-06-18 03:10:01;16.44;1016.64;9;0;0
2022-06-18 03:11:01;16.7;1016.65;8;0;0
2022-06-18 03:12:01;16.52;1016.68;8;0;0
2022-06-18 03:13:02;16.62;1016.61;8;0;0
2022-06-18 03:14:01;16.47;1016.64;8;0;0
2022-06-18 03:15:01;16.56;1016.62;9;0;0
2022-06-18 03:16:01;16.47;1016.64;9;0;0
2022-06-18 03:17:01;16.37;1016.66;9;0;0
2022-06-18 03:18:01;16.32;1016.67;9;0;0
2022-06-18 03:19:01;16.47;1016.64;8;0;0
2022-06-18 03:20:01;16.36;1016.56;9;0;0
2022-06-18 03:21:01;16.29;1016.54;9;0;0
2022-06-18 03:22:01;16.33;1016.62;9;0;0
2022-06-18 03:23:02;16.15;1016.59;8;0;0
2022-06-18 03:24:01;16.05;1016.61;9;0;0
2022-06-18 03:25:01;16.2;1016.6;9;0;0
2022-06-18 03:26:01;16.13;1016.6;8;0;0
2022-06-18 03:27:01;16.21;1016.61;9;0;0
2022-06-18 03:28:01;15.94;1016.65;8;0;0
2022-06-18 03:29:01;16.02;1016.6;8;0;0
2022-06-18 03:30:01;16.01;1016.57;9;0;0
2022-06-18 03:31:01;15.98;1016.59;9;0;0
2022-06-18 03:32:01;16.18;1016.6;8;0;0
2022-06-18 03:33:01;15.91;1016.59;9;0;0
2022-06-18 03:34:01;15.88;1016.59;9;0;0
2022-06-18 03:35:01;15.92;1016.6;9;0;0
2022-06-18 03:36:01;16.01;1016.55;9;0;0
2022-06-18 03:37:01;15.99;1016.58;9;0;0
2022-06-18 03:38:01;15.88;1016.6;9;0;0
2022-06-18 03:39:01;15.93;1016.58;8;0;0
2022-06-18 03:40:01;15.93;1016.63;8;0;0
2022-06-18 03:41:01;15.92;1016.61;9;0;0
2022-06-18 03:42:01;15.79;1016.56;9;0;0
2022-06-18 03:43:01;15.66;1016.57;9;0;0
2022-06-18 03:44:01;15.64;1016.57;9;0;0
2022-06-18 03:45:01;15.63;1016.54;8;0;0
2022-06-18 03:46:01;15.54;1016.55;9;0;0
2022-06-18 03:47:01;15.62;1016.57;9;0;0
2022-06-18 03:48:02;15.67;1016.55;9;0;0
2022-06-18 03:49:01;15.58;1016.49;9;0;0
2022-06-18 03:50:01;15.68;1016.51;9;0;0
2022-06-18 03:51:01;15.59;1016.53;9;0;0
2022-06-18 03:52:01;15.54;1016.57;9;0;0
2022-06-18 03:53:01;15.56;1016.58;10;0;0
2022-06-18 03:54:01;15.53;1016.54;9;0;0
2022-06-18 03:55:01;15.59;1016.5;9;0;0
2022-06-18 03:56:01;15.54;1016.53;8;0;0
2022-06-18 03:57:01;15.48;1016.52;9;0;0
2022-06-18 03:58:01;15.4;1016.5;9;0;0
2022-06-18 03:59:01;15.45;1016.48;9;0;0
2022-06-18 04:00:01;15.48;1016.48;9;0;0
2022-06-18 04:01:01;15.49;1016.5;9;0;0
2022-06-18 04:02:01;15.6;1016.53;9;0;0
2022-06-18 04:03:01;15.45;1016.51;9;0;0
2022-06-18 04:04:01;15.42;1016.53;10;0;0
2022-06-18 04:05:01;15.48;1016.46;10;0;0
2022-06-18 04:06:01;15.32;1016.46;10;0;0
2022-06-18 04:07:01;15.38;1016.41;11;0;0
2022-06-18 04:08:01;15.38;1016.44;11;0;0
2022-06-18 04:09:01;15.4;1016.39;11;0;0
2022-06-18 04:10:01;15.29;1016.42;11;0;0
2022-06-18 04:11:01;15.28;1016.34;12;0;0
2022-06-18 04:12:01;15.32;1016.42;13;0;0
2022-06-18 04:13:01;15.26;1016.48;14;0;0
2022-06-18 04:14:01;15.29;1016.5;13;0;0
2022-06-18 04:15:01;15.37;1016.44;14;0;0
2022-06-18 04:16:01;15.32;1016.44;15;0;0
2022-06-18 04:17:01;15.39;1016.43;16;0;0
2022-06-18 04:18:01;15.32;1016.47;17;0;0
2022-06-18 04:19:01;15.17;1016.45;18;0;0
2022-06-18 04:20:01;15.36;1016.49;21;0;0
2022-06-18 04:21:01;15.17;1016.5;23;0;0
2022-06-18 04:22:01;15.24;1016.48;24;0;0
2022-06-18 04:23:01;15.26;1016.51;28;0;0
2022-06-18 04:24:01;15.18;1016.54;31;0;0
2022-06-18 04:25:01;15.13;1016.53;35;0;0
2022-06-18 04:26:01;15.2;1016.53;38;0;0
2022-06-18 04:27:01;15.26;1016.52;43;0;0
2022-06-18 04:28:01;15.2;1016.48;47;0;0
2022-06-18 04:29:01;15.26;1016.5;52;0;0
2022-06-18 04:30:01;15.17;1016.49;56;0;0
2022-06-18 04:31:01;15.14;1016.56;61;0;0
2022-06-18 04:32:01;15.08;1016.58;66;0;0
2022-06-18 04:33:01;15.1;1016.58;71;0;0
2022-06-18 04:34:01;15.11;1016.53;76;0;0
2022-06-18 04:35:01;14.99;1016.57;84;0;0
2022-06-18 04:36:01;15.29;1016.49;89;0;0
2022-06-18 04:37:01;15.18;1016.48;96;0;0
2022-06-18 04:38:01;14.94;1016.5;103;0;0
2022-06-18 04:39:01;14.98;1016.45;110;0;0
2022-06-18 04:40:01;14.92;1016.45;119;0;0
2022-06-18 04:41:02;15.04;1016.45;129;0;0
2022-06-18 04:42:01;14.9;1016.52;139;0;0
2022-06-18 04:43:01;14.93;1016.56;150;0;0
2022-06-18 04:44:01;14.94;1016.55;162;0;0
2022-06-18 04:45:01;14.96;1016.57;174;0;0
2022-06-18 04:46:01;14.84;1016.62;185;0;0
2022-06-18 04:47:01;14.78;1016.58;197;0;0
2022-06-18 04:48:01;14.98;1016.6;210;0;0
2022-06-18 04:49:01;14.97;1016.58;226;0;0
2022-06-18 04:50:01;14.91;1016.53;242;0;0
2022-06-18 04:51:01;14.87;1016.58;258;0;0
2022-06-18 04:52:01;14.68;1016.58;278;0;0
2022-06-18 04:53:01;14.76;1016.62;300;0;0
2022-06-18 04:54:01;14.69;1016.58;324;0;0
2022-06-18 04:55:01;14.67;1016.56;351;0;0
2022-06-18 04:56:01;14.69;1016.56;378;0;0
2022-06-18 04:57:01;14.6;1016.58;403;0;0
2022-06-18 04:58:01;14.92;1016.57;427;0;0
2022-06-18 04:59:01;14.68;1016.6;450;0;0
2022-06-18 05:00:01;14.7;1016.62;474;0;0
2022-06-18 05:01:01;14.78;1016.55;497;0;0
2022-06-18 05:02:01;14.73;1016.52;521;0;0
2022-06-18 05:03:01;14.61;1016.61;545;0;0
2022-06-18 05:04:01;14.62;1016.59;564;0;0
2022-06-18 05:05:01;14.62;1016.61;580;0;0
2022-06-18 05:06:01;14.55;1016.65;597;0;0
2022-06-18 05:07:01;14.61;1016.65;616;0;0
2022-06-18 05:08:01;14.49;1016.65;634;0;0
2022-06-18 05:09:02;14.45;1016.6;654;0;0
2022-06-18 05:10:01;14.5;1016.6;674;0;0
2022-06-18 05:11:01;14.54;1016.59;698;0;0
2022-06-18 05:12:01;14.47;1016.62;720;0;0
2022-06-18 05:13:01;14.37;1016.55;742;0;0
2022-06-18 05:14:01;14.49;1016.62;766;0;0
2022-06-18 05:15:01;14.35;1016.58;788;0;0
2022-06-18 05:16:01;14.42;1016.66;812;0;0
2022-06-18 05:17:01;14.38;1016.62;834;0;0
2022-06-18 05:18:01;14.19;1016.66;856;0;0
2022-06-18 05:19:01;14.3;1016.64;879;0;0
2022-06-18 05:20:01;14.39;1016.57;903;0;0
2022-06-18 05:21:01;14.21;1016.6;931;0;0
2022-06-18 05:22:02;14.28;1016.65;959;0;0
2022-06-18 05:23:01;14.2;1016.6;983;0;0
2022-06-18 05:24:01;14.22;1016.66;1002;0;0
2022-06-18 05:25:01;14.33;1016.62;1020;0;0
2022-06-18 05:26:01;14.28;1016.61;1045;0;0
2022-06-18 05:27:01;14.43;1016.61;1074;0;0
2022-06-18 05:28:02;14.36;1016.57;1104;0;0
2022-06-18 05:29:01;14.37;1016.66;1128;0;0
2022-06-18 05:30:01;14.25;1016.69;1147;0;0
2022-06-18 05:31:01;14.41;1016.69;1163;0;0
2022-06-18 05:32:01;14.33;1016.74;1179;0;0
2022-06-18 05:33:02;14.26;1016.74;1194;0;0
2022-06-18 05:34:01;14.38;1016.72;1203;0;0
2022-06-18 05:35:01;14.13;1016.8;1210;0;0
2022-06-18 05:36:01;14.37;1016.73;1219;0;0
2022-06-18 05:37:01;14.22;1016.66;1236;0;0
2022-06-18 05:38:01;14.26;1016.71;1253;0;0
2022-06-18 05:39:01;14.28;1016.69;1264;0;0
2022-06-18 05:40:01;14.33;1016.59;1272;0;0
2022-06-18 05:41:01;14.25;1016.66;1275;0;0
2022-06-18 05:42:01;14.45;1016.64;1280;0;0
2022-06-18 05:43:01;14.36;1016.61;1294;0;0
2022-06-18 05:44:01;14.31;1016.65;1307;0;0
2022-06-18 05:45:01;14.37;1016.66;1320;0;0
2022-06-18 05:46:01;14.34;1016.63;1331;0;0
2022-06-18 05:47:02;14.3;1016.62;1349;0;0
2022-06-18 05:48:01;14.32;1016.63;1372;0;0
2022-06-18 05:49:01;14.32;1016.62;1389;0;0
2022-06-18 05:50:01;14.35;1016.59;1405;0;0
2022-06-18 05:51:01;14.34;1016.67;1418;0;0
2022-06-18 05:52:01;14.36;1016.67;1434;0;0
2022-06-18 05:53:01;14.33;1016.66;1449;0;0
2022-06-18 05:54:01;14.49;1016.69;1462;0;0
2022-06-18 05:55:01;14.4;1016.64;1472;0;0
2022-06-18 05:56:01;14.5;1016.59;1483;0;0
2022-06-18 05:57:01;14.43;1016.62;1495;0;0
2022-06-18 05:58:01;14.5;1016.66;1509;0;0
2022-06-18 05:59:01;14.46;1016.65;1517;0;0
2022-06-18 06:00:01;14.46;1016.6;1515;0;0
2022-06-18 06:01:01;14.48;1016.61;1494;0;0
2022-06-18 06:02:01;14.5;1016.58;1487;0;0
2022-06-18 06:03:02;14.56;1016.63;1497;0;0
2022-06-18 06:04:01;14.55;1016.69;1506;0;0
2022-06-18 06:05:01;14.55;1016.61;1529;0;0
2022-06-18 06:06:01;14.62;1016.64;1563;0;0
2022-06-18 06:07:01;14.49;1016.64;1591;0;0
2022-06-18 06:08:01;14.72;1016.6;1613;0;0
2022-06-18 06:09:01;14.74;1016.51;1636;0;0
2022-06-18 06:10:01;14.87;1016.63;1651;0;0
2022-06-18 06:11:01;14.68;1016.64;1665;0;0
2022-06-18 06:12:01;14.89;1016.62;1682;0;0
2022-06-18 06:13:02;15;1016.66;1692;0;0
2022-06-18 06:14:01;14.85;1016.64;1701;0;0
2022-06-18 06:15:01;14.96;1016.67;1703;0;0
2022-06-18 06:16:02;14.95;1016.69;1705;0;0
2022-06-18 06:17:01;14.83;1016.71;1711;0;0
2022-06-18 06:18:01;15.08;1016.68;1708;0;0
2022-06-18 06:19:01;14.96;1016.64;1703;0;0
2022-06-18 06:20:02;15.25;1016.57;1693;0;0
2022-06-18 06:21:01;15.33;1016.59;1677;0;0
2022-06-18 06:22:01;15.2;1016.59;1671;0;0
2022-06-18 06:23:01;15.11;1016.63;1672;0;0
2022-06-18 06:24:01;15.23;1016.69;1667;0;0
2022-06-18 06:25:01;15.27;1016.63;1667;0;0
2022-06-18 06:26:01;15.31;1016.64;1673;0;0
2022-06-18 06:27:01;15.41;1016.55;1670;0;0
2022-06-18 06:28:01;15.29;1016.56;1679;0;0
2022-06-18 06:29:01;15.24;1016.58;1702;0;0
2022-06-18 06:30:01;15.42;1016.58;1719;0;0
2022-06-18 06:31:01;15.56;1016.6;1729;0;0
2022-06-18 06:32:01;15.54;1016.58;1739;0;0
2022-06-18 06:33:01;15.48;1016.52;1742;0;0
2022-06-18 06:34:02;15.56;1016.53;1739;0;0
2022-06-18 06:35:01;15.72;1016.53;1737;0;0
2022-06-18 06:36:01;15.83;1016.51;1750;0;0
2022-06-18 06:37:01;15.86;1016.54;1765;0;0
2022-06-18 06:38:01;15.96;1016.54;1771;0;0
2022-06-18 06:39:01;16.25;1016.56;1777;0;0
2022-06-18 06:40:01;16.33;1016.51;1782;0;0
2022-06-18 06:41:01;16.33;1016.56;1785;0;0
2022-06-18 06:42:01;16.52;1016.54;1789;0;0
2022-06-18 06:43:01;16.61;1016.51;1787;0;0
2022-06-18 06:44:01;16.63;1016.57;1788;0;0
2022-06-18 06:45:01;16.74;1016.53;1794;0;0
2022-06-18 06:46:01;16.85;1016.57;1798;0;0
2022-06-18 06:47:01;17.01;1016.62;1804;0;0
2022-06-18 06:48:01;17.1;1016.59;1807;0;0
2022-06-18 06:49:01;17.23;1016.57;1813;0;0
2022-06-18 06:50:01;17.46;1016.61;1815;0;0
2022-06-18 06:51:01;17.47;1016.62;1815;0;0
2022-06-18 06:52:01;17.56;1016.63;1816;0;0
2022-06-18 06:53:01;17.8;1016.62;1823;0;0
2022-06-18 06:54:01;17.86;1016.63;1828;0;0
2022-06-18 06:55:01;17.96;1016.64;1810;0;0
2022-06-18 06:56:01;17.87;1016.59;1782;0;0
2022-06-18 06:57:01;17.91;1016.59;1771;0;0
2022-06-18 06:58:01;17.95;1016.62;1776;0;0
2022-06-18 06:59:01;17.94;1016.54;1801;0;0
2022-06-18 07:00:01;17.96;1016.54;1822;0;0
2022-06-18 07:01:01;18.12;1016.5;1835;0;0
2022-06-18 07:02:01;18.4;1016.53;1834;0;0
2022-06-18 07:03:02;18.36;1016.49;1832;0;0
2022-06-18 07:04:01;18.59;1016.54;1841;0;0
2022-06-18 07:05:01;18.63;1016.61;1853;0;0
2022-06-18 07:06:01;18.76;1016.65;1861;0;0
2022-06-18 07:07:01;18.68;1016.56;1869;0;0
2022-06-18 07:08:01;18.87;1016.62;1876;0;0
2022-06-18 07:09:01;18.89;1016.57;1881;0;0
2022-06-18 07:10:01;19.15;1016.56;1886;0;0
2022-06-18 07:11:01;19.02;1016.6;1893;0;0
2022-06-18 07:12:01;18.91;1016.59;1900;0;0
2022-06-18 07:13:01;18.96;1016.51;1907;0;0
2022-06-18 07:14:01;19.04;1016.53;1908;0;0
2022-06-18 07:15:01;18.94;1016.51;1909;0;0
2022-06-18 07:16:01;19.09;1016.48;1911;0;0
2022-06-18 07:17:02;19.24;1016.56;1911;0;0
2022-06-18 07:18:01;19.31;1016.58;1910;0;0
2022-06-18 07:19:01;19.22;1016.58;1910;0;0
2022-06-18 07:20:01;19.27;1016.57;1914;0;0
2022-06-18 07:21:01;19.39;1016.56;1916;0;0
2022-06-18 07:22:01;19.5;1016.54;1916;0;0
2022-06-18 07:23:01;19.67;1016.53;1917;0;0
2022-06-18 07:24:01;19.79;1016.51;1914;0;0
2022-06-18 07:25:01;19.77;1016.54;1907;0;0
2022-06-18 07:26:01;20;1016.49;1899;0;0
2022-06-18 07:27:01;20.12;1016.53;1893;0;0
2022-06-18 07:28:02;19.99;1016.54;1886;0;0
2022-06-18 07:29:01;20.08;1016.51;1880;0;0
2022-06-18 07:30:01;20.14;1016.51;1876;0;0
2022-06-18 07:31:01;20.2;1016.55;1868;0;0
2022-06-18 07:32:01;19.97;1016.58;1869;0;0
2022-06-18 07:33:01;19.97;1016.49;1877;0;0
2022-06-18 07:34:01;19.88;1016.5;1877;0;0
2022-06-18 07:35:01;20.06;1016.51;1857;0;0
2022-06-18 07:36:01;20.03;1016.5;1859;0;0
2022-06-18 07:37:01;19.99;1016.41;1865;0;0
2022-06-18 07:38:01;20.11;1016.42;1921;0;0
2022-06-18 07:39:01;20.15;1016.44;1950;0;0
2022-06-18 07:40:01;20.22;1016.5;1951;0;0
2022-06-18 07:41:01;20.52;1016.5;1948;0;0
2022-06-18 07:42:01;20.41;1016.46;1939;0;0
2022-06-18 07:43:01;20.6;1016.45;1930;0;0
2022-06-18 07:44:01;20.54;1016.46;1920;0;0
2022-06-18 07:45:01;20.69;1016.41;1910;0;0
2022-06-18 07:46:01;20.7;1016.46;1894;0;0
2022-06-18 07:47:01;20.83;1016.47;1880;0;0
2022-06-18 07:48:01;20.87;1016.43;1870;0;0
2022-06-18 07:49:01;21.01;1016.49;1859;0;0
2022-06-18 07:50:01;21.11;1016.45;1848;0;0
2022-06-18 07:51:01;21.17;1016.43;1836;0;0
2022-06-18 07:52:01;21.28;1016.4;1837;0;0
2022-06-18 07:53:01;21.07;1016.44;1839;0;0
2022-06-18 07:54:01;21.17;1016.41;1843;0;0
2022-06-18 07:55:01;21.44;1016.43;1858;0;0
2022-06-18 07:56:01;21.27;1016.49;1868;0;0
2022-06-18 07:57:01;21.24;1016.46;1866;0;0
2022-06-18 07:58:01;21.32;1016.48;1857;0;0
2022-06-18 07:59:02;21.46;1016.37;1849;0;0
2022-06-18 08:00:01;21.53;1016.36;1834;0;0
2022-06-18 08:01:01;21.51;1016.37;1833;0;0
2022-06-18 08:02:01;21.68;1016.43;1837;0;0
2022-06-18 08:03:01;21.74;1016.43;1828;0;0
2022-06-18 08:04:01;21.84;1016.42;1830;0;0
2022-06-18 08:05:01;21.96;1016.47;1831;0;0
2022-06-18 08:06:01;21.99;1016.5;1823;0;0
2022-06-18 08:07:01;21.78;1016.48;1831;0;0
2022-06-18 08:08:01;21.97;1016.49;1830;0;0
2022-06-18 08:09:01;22.16;1016.49;1803;0;0
2022-06-18 08:10:01;22.29;1016.43;1789;0;0
2022-06-18 08:11:01;22.14;1016.45;1775;0;0
2022-06-18 08:12:01;22.33;1016.49;1767;0;0
2022-06-18 08:13:01;22.33;1016.46;1761;0;0
2022-06-18 08:14:01;22.14;1016.46;1804;0;0
2022-06-18 08:15:01;22.28;1016.4;1828;0;0
2022-06-18 08:16:01;22.47;1016.46;1839;0;0
2022-06-18 08:17:01;22.61;1016.43;1841;0;0
2022-06-18 08:18:01;22.8;1016.42;1843;0;0
2022-06-18 08:19:01;22.82;1016.41;1843;0;0
2022-06-18 08:20:01;22.78;1016.46;1844;0;0
2022-06-18 08:21:01;22.7;1016.42;1845;0;0
2022-06-18 08:22:02;22.75;1016.43;1846;0;0
2022-06-18 08:23:01;22.84;1016.46;1847;0;0
2022-06-18 08:24:01;22.96;1016.34;1847;0;0
2022-06-18 08:25:01;23.14;1016.32;1851;0;0
2022-06-18 08:26:01;23.15;1016.33;1854;0;0
2022-06-18 08:27:01;23.21;1016.35;1856;0;0
2022-06-18 08:28:02;23.24;1016.34;1859;0;0
2022-06-18 08:29:01;23.25;1016.27;1861;0;0
2022-06-18 08:30:01;23.23;1016.26;1862;0;0
2022-06-18 08:31:01;23.25;1016.27;1862;0;0
2022-06-18 08:32:01;23.41;1016.31;1863;0;0
2022-06-18 08:33:01;23.58;1016.28;1863;0;0
2022-06-18 08:34:01;23.65;1016.37;1867;0;0
2022-06-18 08:35:01;23.71;1016.31;1870;0;0
2022-06-18 08:36:01;23.61;1016.38;1870;0;0
2022-06-18 08:37:01;23.37;1016.37;1870;0;0
2022-06-18 08:38:01;23.29;1016.26;1871;0;0
2022-06-18 08:39:02;23.27;1016.22;1871;0;0
2022-06-18 08:40:01;23.45;1016.28;1872;0;0
2022-06-18 08:41:01;23.45;1016.23;1875;0;0
2022-06-18 08:42:02;23.65;1016.21;1877;0;0
2022-06-18 08:43:01;23.77;1016.26;1877;0;0
2022-06-18 08:44:01;23.99;1016.27;1878;0;0
2022-06-18 08:45:01;24;1016.25;1877;0;0
2022-06-18 08:46:01;24.1;1016.21;1877;0;0
2022-06-18 08:47:01;24.24;1016.26;1878;0;0
2022-06-18 08:48:01;24.11;1016.24;1879;0;0
2022-06-18 08:49:01;24.08;1016.23;1881;0;0
2022-06-18 08:50:01;24.18;1016.24;1882;0;0
2022-06-18 08:51:01;24.23;1016.19;1885;0;0
2022-06-18 08:52:01;24.31;1016.26;1886;0;0
2022-06-18 08:53:01;24.41;1016.19;1886;0;0
2022-06-18 08:54:01;24.36;1016.18;1886;0;0
2022-06-18 08:55:01;24.4;1016.11;1886;0;0
2022-06-18 08:56:02;24.32;1016.05;1886;0;0
2022-06-18 08:57:01;24.53;1016.03;1887;0;0
2022-06-18 08:58:01;24.49;1016.03;1890;0;0
2022-06-18 08:59:01;24.87;1016;1891;0;0
2022-06-18 09:00:01;24.81;1015.99;1893;0;0
2022-06-18 09:01:02;24.9;1016.03;1894;0;0
2022-06-18 09:02:01;24.93;1016.01;1894;0;0
2022-06-18 09:03:01;24.97;1015.9;1893;0;0
2022-06-18 09:04:01;25.16;1015.91;1894;0;0
2022-06-18 09:05:01;25.28;1015.84;1894;0;0
2022-06-18 09:06:02;25.27;1015.84;1894;0;0
2022-06-18 09:07:01;25.38;1015.76;1895;0;0
2022-06-18 09:08:01;25.42;1015.66;1895;0;0
2022-06-18 09:09:01;25.63;1015.64;1897;0;0
2022-06-18 09:10:01;25.56;1015.7;1896;0;0
2022-06-18 09:11:01;25.49;1015.75;1898;0;0
2022-06-18 09:12:02;25.47;1015.75;1901;0;0
2022-06-18 09:13:01;25.52;1015.73;1902;0;0
2022-06-18 09:14:01;25.57;1015.7;1903;0;0
2022-06-18 09:15:01;25.67;1015.66;1903;0;0
2022-06-18 09:16:01;25.59;1015.63;1906;0;0
2022-06-18 09:17:02;25.67;1015.65;1909;0;0
2022-06-18 09:18:01;25.86;1015.6;1910;0;0
2022-06-18 09:19:01;25.9;1015.56;1911;0;0
2022-06-18 09:20:01;25.83;1015.58;1913;0;0
2022-06-18 09:21:01;26.03;1015.62;1913;0;0
2022-06-18 09:22:01;26.1;1015.65;1918;0;0
2022-06-18 09:23:01;26.24;1015.59;1919;0;0
2022-06-18 09:24:01;26.61;1015.53;1924;0;0
2022-06-18 09:25:01;26.63;1015.55;1926;0;0
2022-06-18 09:26:01;26.63;1015.55;1932;0;0
2022-06-18 09:27:01;26.83;1015.54;1936;0;0
2022-06-18 09:28:01;26.73;1015.54;1940;0;0
2022-06-18 09:29:01;26.79;1015.43;1942;0;0
2022-06-18 09:30:01;26.83;1015.43;1942;0;0
2022-06-18 09:31:01;27.08;1015.39;1944;0;0
2022-06-18 09:32:01;27.08;1015.46;1948;0;0
2022-06-18 09:33:01;26.98;1015.42;1949;0;0
2022-06-18 09:34:01;27.33;1015.44;1951;0;0
2022-06-18 09:35:01;27.34;1015.47;1955;0;0
2022-06-18 09:36:01;27.42;1015.44;1957;0;0
2022-06-18 09:37:01;27.49;1015.4;1958;0;0